Flag for Germany Weather past 2 weeks in Seevetal, Lower Saxony, Germany

Now
73 °F

Passing clouds.


Feels Like: 77 °F
Forecast: 57 / 71 °F
Wind: 9 mph from East

Location: Hamburg-Finkenwerder

Current Time: Sep 17, 2014 at 3:42:08 PM

Latest Report: Sep 17, 2014 at 3:20 PM


Visibility: N/A

Pressure: 29.98 "Hg

Humidity: 57%

Dew point: 57 °F

Location of SeevetalLocation

Historic Weather in Seevetal — Graph

°F

Seevetal temperature yesterday

Maximum temperature yesterday: 75 °F (at 3:20 PM)
Minimum temperature yesterday: 61 °F (at 5:50 AM)
Average temperature yesterday: 69 °F

Past Weeks' High & Low Weather Summary

 TemperatureHumidityPressure
High79 °F (Sep 5, 3:50 PM)100% (Sep 8, 5:50 AM)30.33 "Hg (Sep 8, 5:50 AM)
Low54 °F (Sep 3, 5:50 AM)41% (Sep 4, 4:50 PM)29.89 "Hg (Sep 6, 9:20 AM)
Average66 °F73%30.10 "Hg
* Reported Sep 2 2:20 PM — Sep 17 2:20 PM, Seevetal, Weather by CustomWeather, © 2014

Note: Actual official high and low records may vary slightly from our data, if they occured in-between our weather recording intervals... More about our weather records

Advertising

Seevetal weather history for previous 24 hours

 ConditionsComfort  
Time TempWeatherWind HumidityBarometerVisibility
2:20 PM
Sep 17
73 °FPassing clouds.10 mph57%30.01 "HgN/A
1:50 PM73 °FPassing clouds.9 mph57%30.01 "HgN/A
1:20 PM73 °FPassing clouds.13 mph57%30.01 "HgN/A
12:50 PM72 °FSunny.10 mph61%30.01 "Hg10 mi
12:20 PM72 °FPassing clouds.9 mph61%30.01 "HgN/A
11:50 AM70 °FPassing clouds.10 mph64%30.01 "HgN/A
11:20 AM68 °FSunny.10 mph64%30.04 "Hg10 mi
10:50 AM66 °FSunny.9 mph68%30.04 "Hg10 mi
10:20 AM64 °FPassing clouds.8 mph73%30.04 "HgN/A
9:50 AM64 °FSunny.9 mph73%30.04 "Hg10 mi
9:20 AM63 °FSunny.9 mph73%30.04 "Hg10 mi
8:50 AM61 °FPassing clouds.7 mph77%30.04 "HgN/A
8:20 AM61 °FSunny.9 mph77%30.04 "Hg10 mi
7:50 AM61 °FClear.8 mph77%30.04 "Hg10 mi
7:20 AM61 °FClear.7 mph77%30.04 "Hg10 mi
6:50 AM61 °FClear.8 mph83%30.04 "Hg10 mi
6:20 AM61 °FClear.8 mph83%30.04 "Hg10 mi
5:50 AM61 °FPassing clouds.9 mph83%30.04 "HgN/A
9:50 PM
Sep 16
70 °FPassing clouds.10 mph69%30.07 "HgN/A
9:20 PM70 °FPassing clouds.8 mph69%30.04 "HgN/A
8:50 PM70 °FPassing clouds.8 mph69%30.04 "HgN/A
8:20 PM72 °FPassing clouds.7 mph65%30.04 "HgN/A
7:50 PM72 °FPartly sunny.6 mph65%30.04 "HgN/A
7:20 PM72 °FPartly sunny.8 mph65%30.04 "HgN/A
6:50 PM73 °FPartly sunny.7 mph65%30.04 "HgN/A
6:20 PM73 °FPartly sunny.10 mph65%30.04 "HgN/A
5:50 PM73 °FScattered clouds.8 mph65%30.04 "HgN/A
5:20 PM75 °FPartly sunny.10 mph61%30.04 "HgN/A
4:50 PM75 °FPartly sunny.7 mph61%30.04 "HgN/A
4:20 PM75 °FPartly sunny.9 mph61%30.04 "HgN/A
3:50 PM75 °FPassing clouds.10 mph61%30.04 "HgN/A
3:20 PM75 °FPassing clouds.9 mph61%30.04 "HgN/A
Weather by CustomWeather, © 2014

See weather overviewHow to use our weather pages